Location: Zagreb
(45.8000°N, 16.0000°E)
Time: 20:11:39
(UTC+02:00)

A-11 Canister half - Pass Details

Date: 10 August 2022
Orbit: 1524 x 1684 km, 47.3° (Epoch: 05 October)

Event Time Altitude Azimuth Distance (km) Brightness Sun altitude
Rises 13:11:03 0° 293° (WNW) 4,926 11.6 59.6°
Reaches altitude 10° 13:14:25 10° 288° (WNW) 3,922 11.2 59.6°
Maximum altitude 13:23:41 45° 220° (SW) 2,123 11.3 59.3°
Drops below altitude 10° 13:32:40 10° 152° (SSE) 3,799 11.6 59.0°
Sets 13:35:53 0° 146° (SSE) 4,759 11.9 58.8°
